EST,Max TemperatureF,Mean TemperatureF,Min TemperatureF,Max Dew PointF,MeanDew PointF,Min DewpointF,Max Humidity, Mean Humidity, Min Humidity, Max Sea Level PressureIn, Mean Sea Level PressureIn, Min Sea Level PressureIn, Max VisibilityMiles, Mean VisibilityMiles, Min VisibilityMiles, Max Wind SpeedMPH, Mean Wind SpeedMPH, Max Gust SpeedMPH,PrecipitationIn, CloudCover, Events, WindDirDegrees
2014-1-1,48,40,31,28,24,22,72,55,38,30.32,30.19,30.02,10,10,10,12,4,16,0.00,1,,181
2014-1-2,41,28,15,36,23,7,96,74,51,30.37,30.04,29.84,10,5,0,24,9,32,0.21,8,Fog-Rain-Snow,318
2014-1-3,24,17,10,9,5,2,76,61,45,30.58,30.45,30.28,10,10,10,13,5,16,0.00,0,,105
2014-1-4,43,31,18,19,14,9,74,54,33,30.27,30.17,30.06,10,10,10,18,7,26,0.00,1,,176
2014-1-5,55,37,19,46,35,12,100,72,44,30.07,29.73,29.52,10,6,1,29,9,38,0.55,8,Rain-Snow,243
2014-1-6,19,8,-3,9,-9,-15,73,62,51,30.54,30.35,29.99,10,9,2,28,16,37,T,6,Snow,277
2014-1-7,15,6,-3,2,-6,-13,65,56,46,30.60,30.51,30.43,10,10,10,16,7,22,0.00,1,,215
2014-1-8,34,23,11,21,11,2,67,55,43,30.50,30.46,30.43,10,10,10,12,4,14,T,3,,176
2014-1-9,42,36,29,32,25,18,96,66,36,30.51,30.42,30.28,10,8,2,14,3,20,0.03,7,Rain-Snow,147
2014-1-10,55,45,35,48,43,32,93,87,80,30.26,30.03,29.71,10,10,7,15,5,21,T,8,Rain,154
2014-1-11,54,45,36,52,45,32,100,84,68,29.88,29.67,29.56,10,7,1,22,9,31,0.99,7,Rain,224
2014-1-12,51,41,31,34,31,29,89,67,44,30.10,30.00,29.89,10,10,10,15,6,21,0.00,1,,210
2014-1-13,52,49,46,49,40,29,93,69,44,29.91,29.82,29.75,10,10,7,17,8,26,0.21,5,Rain,219
2014-1-14,53,42,30,41,32,22,92,68,44,30.00,29.89,29.81,10,10,7,24,8,31,0.01,3,Rain,262
2014-1-15,33,28,23,22,17,13,69,61,53,30.15,30.09,30.00,10,10,3,17,8,20,T,6,Snow,288
2014-1-16,36,28,19,32,21,13,89,70,51,30.11,29.93,29.79,10,9,2,16,7,23,T,6,Rain-Snow,191
2014-1-17,35,25,15,32,20,6,96,76,56,30.15,29.92,29.77,10,6,0,21,9,25,0.05,7,Fog-Snow,247
2014-1-18,35,26,16,22,14,8,80,65,49,30.13,29.99,29.81,10,10,10,16,6,22,0.00,6,,184
2014-1-19,37,32,26,32,24,19,89,71,52,30.09,29.94,29.79,10,10,10,20,11,24,0.00,4,,245
2014-1-20,52,44,36,30,27,22,70,56,41,29.93,29.87,29.81,10,10,10,15,6,21,0.00,1,,260
2014-1-21,37,22,7,32,17,-4,100,73,46,30.27,29.97,29.79,10,4,0,24,9,36,0.16,5,Fog-Snow,331
2014-1-22,22,12,2,16,3,-3,86,68,49,30.26,30.18,30.09,10,9,2,12,5,16,T,5,Snow,201
2014-1-23,21,13,4,18,0,-8,69,60,50,30.72,30.47,30.14,10,8,1,24,12,30,T,2,Snow,303
2014-1-24,27,14,1,2,-1,-5,79,58,36,30.73,30.44,29.98,10,10,10,21,9,29,0.00,0,,210
2014-1-25,39,28,17,25,15,1,88,56,24,30.00,29.77,29.64,10,6,0,33,15,46,0.05,6,Fog-Snow,235
2014-1-26,52,33,14,33,18,1,76,54,32,30.00,29.75,29.61,10,10,10,20,6,28,0.00,4,,210
2014-1-27,49,29,9,34,3,-8,69,53,36,30.47,30.17,29.68,10,10,10,31,13,39,0.00,3,,314
2014-1-28,14,8,2,-2,-7,-11,69,52,34,30.53,30.46,30.40,10,10,10,12,4,14,0.00,0,,5
2014-1-29,26,15,4,2,0,-2,86,59,32,30.45,30.40,30.35,10,10,10,13,4,17,0.00,0,,205
2014-1-30,39,26,13,3,1,-2,61,40,19,30.32,30.17,29.99,10,10,10,17,8,24,0.00,0,,185
2014-1-31,44,38,32,23,12,2,45,33,21,30.17,30.10,30.06,10,10,10,12,5,15,0.00,5,,174